Showing default

ZHUHAI-1 03D, 44538

Orbit data source: Space-Track

ZHUHAI-1 03D, 44538 is a payload satellite owned by Zhuhai Orbita (CN) in SSO that was launched on Thu, 19 Sep 2019 UTC via a CHANG ZHENG 11 launch vehicle from the Jiuquan Satellite Launch Center, China (JSC). Payload-class satellites include a variety of spacecraft equipped with specific instruments for various scientific and technological missions. These include communications satellites like Starlink; space stations such as the ISS; scientific satellites like the Hubble; Earth observation satellites from companies like Planet Labs, Umbra, and HawkEye 360; GPS; miniature CubeSats for education and research; and military/defense satellites.

Loading next visibility...
Identifier
44538, 2019-060E
Orbit
SSO
Last TLE update
5 hours ago
Origin
Manufacturer
Harbin
Mission
Operational Commercial Imaging
Bus & Motor
OHS-1, Unknown motor
Mass
69 kg wet, 69 kg dry
Launch date (UTC)
2019-09-19 (6 years ago)
Launch vehicle
CHANG ZHENG 11
Launch site
Jiuquan Satellite Launch Center, China (JSC)
Object type
Payload
Rocket body
Debris
Shape & HBR
Box, Unknown HBR
Radar Cross Section
0.280 m², Medium (>0.1 m² and < 1m²)

Expand to show TLE details & history

TLE from 5 hours ago
0 ZHUHAI-1 03D
1 44538U 19060E   25181.92560955  .00011643  00000-0  39423-3 0  9997
2 44538  97.5031 317.4961 0013360 125.6480 234.6007 15.30663118322048
Epoch: 2025-06-30T22:12Z
TLE epoch observation values (Epoch: 2025-06-30T22:12:52.665Z)
Latitude
0.00002°
Longitude
65.04824°
Altitude
482.247 km
Speed
7.621 km/s
True Right ascension
21h 09m 59s
True Declination
0° 00' 00"
Sunlit
Object was in full shadow at epoch
Visualization orbit readout
Latitude
25.41477°
Longitude
61.68305°
Altitude
478.526 km
Speed
7.628 km/s
Apparent Right ascension
23h 23m 05s
Apparent Declination
-7° 57' 47"
Sunlit
Object is in full shadow
Visualization observer readout
Local Sidereal Time
14:39:11
Azimuth
67.451° ENE
Elevation
-35.944°
Doppler factor
1
Orbital elements
Apogee altitude
479.939 km
Perigee altitude
461.638 km
Semi-major axis
6,848.925 km
Eccentricity
0.00134
Inclination
97.5031°
RAAN
317.4961°
Arg. of periapsis
125.648°
True anomaly
Unknown
Mean anomaly
234.6007°
Eccentric anomaly
Unknown
Mean motion
3.82921 °/min
Orbital period
94.01 mins
BSTAR
0.00039423
Loading maneuver chart data...
Loading SW <> Apogee altitude chart data...
Loading historical data...
Loading historical data...
Loading historical data...
Loading historical data...
Loading historical data...
Loading historical data...
Loading historical data...

ZHUHAI-1 03D Visibility forecast

Observer location: undefined°, undefined°

Span
Click to sort rows by Start time (UTC) header in descending order
Start Az.
Max El. time (UTC)
Max El. Az.
Max El.
End time (UTC)
End Az.
6 mins2025-07-01 09:18:57.770Z180.77° SSW2025-07-01 09:21:57.770Z238.948° WSW39.037°2025-07-01 09:24:57.770Z336.241° NNW
5 mins2025-07-01 22:18:57.770Z349.235° N2025-07-01 22:20:57.770Z293.298° NW33.635°2025-07-01 22:23:57.770Z216.908° SW
|